DW5856 Weather Reports


time (UTC)temp
F
wind
direction
speed
knots
gust
knots
rain 1hr
in
rain 24hr
in
rain mn
in
humidity
%
barometer
mb
20260906214557 88 184 3.5 7.8 0.00 0.00 0.00 35 1000.5
20260906213052 88 127 4.3 8.7 0.00 0.00 0.00 35 1000.8
20260906211552 89 144 1.7 11.3 0.00 0.00 0.00 37 1000.9
20260906210058 88 171 0.9 7.8 0.00 0.00 0.00 37 1001.2
20260906204544 88 113 4.3 9.6 0.00 0.00 0.00 37 1001.4
20260906203043 87 123 3.5 7.0 0.00 0.00 0.00 39 1001.5
20260906201539 87 154 0.9 7.8 0.00 0.00 0.00 39 1001.6
20260906200048 87 171 2.6 7.8 0.00 0.00 0.00 40 1001.7
20260906194538 86 135 0.9 4.3 0.00 0.00 0.00 40 1001.9
20260906193032 85 139 1.7 7.8 0.00 0.00 0.00 41 1002.0
20260906191539 84 121 1.7 7.8 0.00 0.00 0.00 44 1002.2
20260906190037 83 111 2.6 9.6 0.00 0.00 0.00 46 1002.4
20260906184522 83 126 2.6 6.1 0.00 0.00 0.00 46 1002.9
20260906183018 81 128 1.7 4.3 0.00 0.00 0.00 48 1003.3
20260906181530 81 64 2.6 7.0 0.00 0.00 0.00 48 1003.4
20260906180013 81 134 3.5 5.2 0.00 0.00 0.00 52 1003.7
20260906174509 79 94 1.7 7.0 0.00 0.00 0.00 51 1004.0
20260906173007 79 89 1.7 6.1 0.00 0.00 0.00 53 1004.3
20260906171505 78 99 1.7 7.8 0.00 0.00 0.00 56 1004.6
20260906170004 78 101 1.7 7.0 0.00 0.00 0.00 57 1004.8
20260906164503 76 71 0.9 4.3 0.00 0.00 0.00 56 1004.9
20260906163058 75 55 0.9 5.2 0.00 0.00 0.00 55 1004.7
20260906161555 74 22 3.5 5.2 0.00 0.00 0.00 58 1004.8
20260906160052 73 24 3.5 7.8 0.00 0.00 0.00 61 1005.0
20260906154556 72 44 1.7 7.8 0.00 0.00 0.00 62 1005.0
20260906153047 71 70 2.6 6.1 0.00 0.00 0.00 64 1005.1
20260906151547 70 49 2.6 6.1 0.00 0.00 0.00 66 1005.2
20260906150049 69 71 2.6 6.1 0.00 0.00 0.00 68 1005.4
20260906144545 69 46 3.5 7.0 0.00 0.00 0.00 66 1005.3
20260906143102 69 109 2.6 7.0 0.00 0.00 0.00 67 1005.3
20260906141544 68 38 2.6 6.1 0.00 0.00 0.00 70 1005.4
20260906140046 67 71 2.6 5.2 0.00 0.00 0.00 71 1005.6
20260906134549 64 5 3.5 6.1 0.00 0.00 0.00 72 1005.8
20260906133045 63 9 5.2 7.0 0.00 0.00 0.00 72 1005.6
20260906131547 62 13 3.5 5.2 0.00 0.00 0.00 73 1005.5
20260906130043 62 5 3.5 6.1 0.00 0.00 0.00 77 1005.3
20260906124534 62 56 2.6 5.2 0.00 0.00 0.00 77 1005.2
20260906123035 62 25 4.3 5.2 0.00 0.00 0.00 78 1004.9
20260906121529 62 28 3.5 5.2 0.00 0.00 0.00 77 1004.9
20260906120026 63 13 2.6 4.3 0.00 0.00 0.00 75 1004.9
20260906114529 63 33 3.5 7.0 0.00 0.00 0.00 75 1004.9
20260906113036 64 32 5.2 7.0 0.00 0.00 0.00 72 1004.9
20260906111522 64 26 5.2 9.6 0.00 0.00 0.00 71 1004.8
20260906110017 65 34 4.3 7.8 0.00 0.00 0.00 68 1004.7
20260906104514 64 22 4.3 7.0 0.00 0.00 0.00 68 1004.7
20260906103010 64 19 4.3 5.2 0.00 0.00 0.00 64 1004.7
20260906101508 65 45 2.6 7.8 0.00 0.00 0.00 62 1004.8
20260906100007 65 49 3.5 7.0 0.00 0.00 0.00 62 1004.8
20260906094508 65 29 4.3 7.0 0.00 0.00 0.00 60 1004.4
20260906093001 65 46 4.3 6.1 0.00 0.00 0.00 59 1004.3
20260906091600 66 38 4.3 7.8 0.00 0.00 0.00 58 1004.2
20260906090117 66 19 4.3 7.8 0.00 0.00 0.00 57 1004.0
20260906084556 66 17 4.3 7.8 0.00 0.00 0.00 56 1003.8
20260906083053 67 360 6.1 8.7 0.00 0.00 0.00 56 1003.9
20260906081553 68 42 4.3 6.1 0.00 0.00 0.00 55 1004.0
20260906080049 68 36 5.2 7.8 0.00 0.00 0.00 54 1004.0
20260906074546 68 29 5.2 8.7 0.00 0.00 0.00 51 1004.2
20260906073044 68 17 7.0 10.4 0.00 0.00 0.00 50 1003.9
20260906071552 69 48 5.2 7.8 0.00 0.00 0.00 50 1004.0
20260906070039 68 23 3.5 7.8 0.00 0.00 0.00 50 1003.9
20260906064540 68 338 4.3 5.2 0.00 0.00 0.00 48 1004.1
20260906063032 69 311 3.5 5.2 0.00 0.00 0.00 47 1004.2
20260906061529 70 313 2.6 3.5 0.00 0.00 0.00 46 1004.1
20260906060029 71 12 4.3 7.0 0.00 0.00 0.00 47 1004.0
20260906054525 70 348 4.3 7.0 0.00 0.00 0.00 47 1003.7
20260906053029 71 18 3.5 5.2 0.00 0.00 0.00 46 1003.9
20260906051531 71 126 2.6 3.5 0.00 0.00 0.00 46 1003.8
20260906050047 71 131 3.5 7.0 0.00 0.00 0.00 46 1003.6
20260906044522 72 296 3.5 5.2 0.00 0.00 0.00 45 1002.7
20260906043021 73 111 7.0 10.4 0.00 0.00 0.00 44 1002.8
20260906041521 73 360 2.6 6.1 0.00 0.00 0.00 41 1002.1
20260906040020 73 313 3.5 6.1 0.00 0.00 0.00 40 1002.2
20260906034530 75 360 2.6 4.3 0.00 0.00 0.00 39 1002.5
20260906033024 76 65 0.9 5.2 0.00 0.00 0.00 40 1002.4
20260906031520 77 355 3.5 7.8 0.00 0.00 0.00 37 1002.2
20260906030019 80 55 1.7 11.3 0.00 0.00 0.00 34 1001.9
20260906024517 81 314 7.8 13.0 0.00 0.00 0.00 32 1001.5
20260906023024 81 331 5.2 10.4 0.00 0.00 0.00 31 1001.4
20260906021517 82 314 10.4 13.9 0.00 0.00 0.00 31 1001.3
20260906020016 82 313 10.4 14.8 0.00 0.00 0.00 30 1000.9
20260906014516 82 316 9.6 15.6 0.00 0.00 0.00 31 1000.9
20260906013015 82 319 10.4 16.5 0.00 0.00 0.00 30 1000.8
20260906011514 82 285 14.8 20.0 0.00 0.00 0.00 31 1001.0
20260906010015 82 315 16.5 22.6 0.00 0.00 0.00 31 1000.8
20260906004513 83 313 17.4 21.7 0.00 0.00 0.00 31 1001.3
20260906003012 83 304 15.6 25.2 0.00 0.00 0.00 31 1001.4
20260906001510 85 304 14.8 21.7 0.00 0.00 0.00 28 1001.1
20260906000009 86 306 13.0 23.5 0.00 0.00 0.00 28 1000.9
20260905234508 87 319 14.8 22.6 0.00 0.00 0.00 26 1001.0
20260905233017 90 316 1.7 3.5 0.00 0.00 0.00 23 1000.7
20260905231505 90 229 0.9 2.6 0.00 0.00 0.00 24 1000.4
20260905230006 90 232 0.9 4.3 0.00 0.00 0.00 23 1000.2
20260905224509 90 174 0.9 6.1 0.00 0.00 0.00 24 1000.1
20260905223005 91 131 0.9 9.6 0.00 0.00 0.00 23 1000.1
20260905221506 92 172 1.7 7.0 0.00 0.00 0.00 23 1000.0
20260905220003 94 138 4.3 14.8 0.00 0.00 0.00 22 1000.2